User: anonymous   Login
Location: Unspecified
(34.4950°S, 58.5160°W)
Time: 17:26:16
(UTC+00:00)
Language:

Meteor 2-10 Rocket - Orbit

View from above orbital plane
View from above orbital plane
View from above satellite
View from above satellite

Ground track
Ground track

The orbit is defined by the following mean orbital elements,

1 14453U          26159.18768150 +.00000000 +00000-0 +39079-4 0 00001
2 14453  81.1667  47.3365 0102890 297.6054  61.4706 14.25461288    04
Epoch (UTC): 08 June 2026 04:30:15
Eccentricity: 0.0102890
inclination: 81.1667°
perigee height: 733 km
apogee height: 881 km
right ascension of ascending node: 47.3365°
argument of perigee: 297.6054°
revolutions per day: 14.25461288
mean anomaly at epoch: 61.4706°

The dashed part of the orbit path shows where the satellite is in the earth's shadow,  

DLR